Location: �mondeville
(49.4591°N, 1.3431°W)
Time: 16:10:37
(UTC+00:00)

Cosmos 1726 - Pass Details

Date: 22 October 2019
Orbit: 483 x 500 km, 82.5° (Epoch: 11 November)

Event Time Altitude Azimuth Distance (km) Brightness Sun altitude
Rises 05:54:08 0° 334° (NNW) 2,565 5.4 -7.6°
Reaches altitude 10° 05:56:52 10° 312° (NW) 1,681 4.3 -7.2°
Maximum altitude 05:59:07 16° 274° (W) 1,359 3.7 -6.8°
Drops below altitude 10° 06:01:22 10° 236° (SW) 1,676 4.4 -6.5°
Sets 06:04:06 0° 214° (SSW) 2,555 5.5 -6.0°
